Home   Weather   Germantown   Past weeks

Flag for USA Past Weather in Germantown, Maryland, USA — Yesterday and Last 2 Weeks

Now
68 °F

Sunny.


Feels Like: 68 °F
Forecast: 63 / 78 °F
Wind: 10 mph from Northwest

Location: Frederick Municipal Airport

Current Time: Jul 25, 2017 at 7:03:53 am

Latest Report: Jul 25, 2017 at 6:25 am


Visibility: 10 mi

Pressure: 30.07 "Hg

Humidity: 60%

Dew Point: 54 °F

Location of GermantownLocation

Past Weather in Germantown — Graph

°F

Germantown Temperature Yesterday

Maximum temperature yesterday: 90 °F (at 2:54 pm)
Minimum temperature yesterday: 73 °F (at 1:45 am)
Average temperature yesterday: 78 °F

High & Low Weather Summary for the Past Weeks

 TemperatureHumidityPressure
High95 °F (Jul 19, 4:47 pm)100% (Jul 10, 5:05 am)30.14 "Hg (Jul 10, 5:05 am)
Low61 °F (Jul 10, 6:05 am)20% (Jul 19, 4:47 pm)29.76 "Hg (Jul 24, 4:00 am)
Average77 °F80%30.00 "Hg
* Reported Jul 10 5:05 am — Jul 25 5:45 am, Germantown. Weather by CustomWeather, © 2017

Note: Actual official high and low records may vary slightly from our data, if they occured in-between our weather recording intervals... More about our weather records

Advertising

Germantown Weather History for the Previous 24 Hours

Scroll right to see more
 ConditionsComfort  
Time TempWeatherWind HumidityBarometerVisibility
5:45 am
Tue, Jul 25
64 °FClear.5 mph68%30.06 "Hg10 mi
5:25 am64 °FClear.No wind68%30.05 "Hg10 mi
5:05 am68 °FClear.No wind60%30.05 "Hg10 mi
4:45 am68 °FClear.6 mph60%30.04 "Hg10 mi
4:25 am68 °FClear.No wind60%30.03 "Hg10 mi
4:05 am68 °FClear.6 mph60%30.03 "Hg10 mi
3:25 am70 °FClear.3 mph60%30.02 "Hg10 mi
2:45 am72 °FClear.9 mph57%30.02 "Hg10 mi
2:25 am72 °FClear.9 mph57%30.01 "Hg10 mi
2:05 am73 °FClear.9 mph57%30.00 "Hg10 mi
1:45 am73 °FClear.7 mph57%30.00 "Hg10 mi
1:25 am73 °FClear.9 mph57%29.99 "Hg10 mi
1:05 am73 °FClear.9 mph61%29.99 "Hg10 mi
12:45 am75 °FClear.7 mph57%29.99 "Hg10 mi
12:25 am75 °FClear.6 mph61%29.98 "Hg10 mi
12:05 am77 °FClear.5 mph61%29.96 "Hg10 mi
11:45 pm
Mon, Jul 24
77 °FClear.6 mph61%29.95 "Hg10 mi
11:25 pm77 °FClear.7 mph65%29.94 "Hg10 mi
10:45 pm73 °FPassing clouds.6 mph100%29.93 "Hg10 mi
10:25 pm73 °FPassing clouds.No wind100%29.93 "Hg10 mi
10:05 pm73 °FOvercast.No wind100%29.92 "Hg10 mi
9:45 pm75 °FPassing clouds.No wind94%29.91 "Hg10 mi
9:25 pm75 °FPassing clouds.No wind94%29.90 "Hg10 mi
9:05 pm77 °FPassing clouds.No wind89%29.89 "Hg10 mi
7:55 pm79 °FThundershowers. Broken clouds.8 mph74%29.85 "Hg7 mi
6:50 pm88 °FPartly sunny.3 mph52%29.83 "Hg10 mi
5:53 pm88 °FPartly sunny.6 mph49%29.82 "Hg10 mi
4:47 pm90 °FScattered clouds.7 mph46%29.83 "Hg10 mi
3:47 pm90 °FScattered clouds.7 mph43%29.84 "Hg10 mi
2:54 pm90 °FMostly cloudy.6 mph43%29.85 "Hg10 mi
1:49 pm88 °FScattered clouds.3 mph49%29.86 "Hg10 mi
12:48 pm86 °FPartly sunny.7 mph49%29.86 "Hg10 mi
11:47 am82 °FOvercast.5 mph58%29.86 "Hg10 mi
10:47 am84 °FBroken clouds.7 mph51%29.85 "Hg10 mi
9:47 am82 °FPartly sunny.6 mph58%29.85 "Hg10 mi
8:47 am81 °FSunny.8 mph62%29.85 "Hg10 mi
7:50 am79 °FSunny.7 mph74%29.82 "Hg10 mi
Weather by CustomWeather, © 2017

See weather overviewHow to use our weather pages